Location: Metacom Observatory
(41.7315°N, 71.2698°W)
Time: 19:03:31
(UTC-04:00)

OTV 5 (USA 277) - Visible Passes

Search period start: 23 April 2018 00:00
Search period end: 03 May 2018 00:00
Orbit: 308 x 325 km, 54.5° (Epoch: 23 April)

Date Brightness Start Highest point End Pass type
(mag) Time Alt. Az. Time Alt. Az. Time Alt. Az.
24 Apr ? 20:07:07 10° NW 20:08:07 11° NNW 20:09:08 10° N visible
27 Apr ? 22:26:45 10° N 22:26:58 11° N 22:26:58 11° N visible
28 Apr ? 22:40:40 10° NNW 22:40:48 11° NNW 22:40:48 11° NNW visible
29 Apr ? 21:21:58 10° N 21:22:47 11° NNE 21:23:36 10° NE visible
30 Apr ? 21:35:33 10° NNW 21:37:34 18° NNE 21:37:37 18° NNE visible
01 May ? 21:49:39 10° NW 21:51:30 30° N 21:51:30 30° N visible
02 May ? 20:30:33 10° N 20:32:05 14° NNE 20:33:37 10° ENE visible
02 May ? 22:04:01 10° NW 22:05:25 26° WNW 22:05:25 26° WNW visible
